User: anonymous   Login
Location: Unspecified
(0.0000°N, 0.0000°E)
Time: 21:32:10
(UTC+00:00)
Language:

PAYLOAD G - Orbit

View from above orbital plane
View from above orbital plane
View from above satellite
View from above satellite

Ground track
Ground track

The orbit data is extracted from the following two-line orbital elements,

1 27846U 03031G   18343.01540653 +.00000024 +00000-0 +30458-4 0  9997
2 27846 098.6827 347.6239 0008992 193.3429 166.7512 14.22193991801044
Epoch (UTC): 09 December 2018 00:22:11
Eccentricity: 0.0008992
inclination: 98.6827°
perigee height: 811 km
apogee height: 824 km
right ascension of ascending node: 347.6239°
argument of perigee: 193.3429°
revolutions per day: 14.22193991
mean anomaly at epoch: 166.7512°
orbit number at epoch: 80104

The dashed part of the orbit path shows where the satellite is in the earth's shadow,  

DLR